Location: Kampong Paya Jaras Dalam
(3.1833°N, 101.5500°E)
Time: 04:38:56
(UTC+00:00)

ATLAS 5 CENTAUR R/B - Pass Details

Date: 15 May 2026
Orbit: 266 x 10926 km, 20.2° (Epoch: 6 June)

Event Time Altitude Azimuth Distance (km) Brightness Sun altitude
Exits shadow 20:32:45 53° 224° (SW) 3,588 4.4 -35.5°
Maximum altitude 20:36:33 58° 190° (S) 4,143 4.8 -34.6°
Drops below altitude 10° 21:40:09 10° 116° (ESE) 14,683 8.6 -20.1°
Sets 22:02:52 0° 111° (ESE) 16,078 9.0 -14.8°
